Regional Weather Roundup
Issued by NWS

Home | Current Version | Previous Version | Graphics & Text | Print | Product List | Glossary On
Versions: 1 2 3 4 5 6 7 8 9 10 11 12 13 14 15 16 17 18 19 20 21 22 23 24 25 26 27 28 29 30 31 32 33 34 35 36 37 38 39 40 41 42 43 44 45 46 47 48 49 50
000
ASUS45 KCYS 300110
RWRWY

WYOMING REGIONAL WEATHER ROUNDUP
NATIONAL WEATHER SERVICE CHEYENNE WY
700 PM MDT FRI MAY 29 2015

NOTE:  "FAIR" INDICATES FEW OR NO CLOUDS BELOW 12,000 FEET
WITH NO SIGNIFICANT WEATHER AND/OR OBSTRUCTIONS TO VISIBILITY.

WYZ001-300200-
YELLOWSTONE NATIONAL PARK

CITY           SKY/WX    TMP DP  RH WIND       PRES   REMARKS
LK YELLOWSTONE   N/A     52  43  71 CALM      30.30F
W YELLOWSTONE  NOT AVBL

$$
WYZ002>013-054>058-071-098>099-300200-
NORTHERN WYOMING

CITY           SKY/WX    TMP DP  RH WIND       PRES   REMARKS
JACKSON        SUNNY     63  43  48 VRB7      30.21F
CODY           CLOUDY    61  50  67 CALM      30.21S
GREYBULL       FAIR      70  40  33 SW9       30.16F
WORLAND        FAIR      67  42  40 S8        30.18F
SHERIDAN       FAIR      57  44  62 S6        30.24F
BUFFALO        PTSUNNY   52  44  74 S7        30.29S
GILLETTE       FAIR      57  31  37 NE5       30.28S
HULETT         FAIR      54  36  50 E6        30.29S
NEWCASTLE      FAIR      57  34  41 SE6       30.28R

$$
WYZ014>020-022>026-101>103-300200-
CENTRAL WYOMING

CITY           SKY/WX    TMP DP  RH WIND       PRES   REMARKS
BIG PINEY      FAIR      60  39  45 SW5       30.29F
PINEDALE       FAIR      57  36  44 SW9       30.29S
DUBOIS         MOCLDY    50  43  76 SE12G17   30.30S
LANDER         FAIR      58  46  64 S5        30.24S
RIVERTON       FAIR      61  43  51 E6        30.25F
CASPER         FAIR      54  42  64 N5        30.30S
DOUGLAS        FAIR      54  43  66 NW5       30.30R

$$
WYZ021-027>030-104>119-300200-
SOUTHERN WYOMING

CITY           SKY/WX    TMP DP  RH WIND       PRES   REMARKS
EVANSTON       FAIR      65  36  34 VRB3      30.26S
KEMMERER       MOCLDY    63  30  29 CALM      30.28S
FORT BRIDGER   CLEAR     64  39  39 NE7       30.30S
ROCK SPRINGS   FAIR      59  41  51 E15       30.28S
DIXON          FAIR      58  39  50 E7        30.32S
RAWLINS        FAIR      56  40  55 VRB3      30.32R
SARATOGA       FAIR      54  37  54 N9        30.33R
LARAMIE        CLOUDY    50  40  68 NE12      30.33R
CHEYENNE       LGT RAIN  47  45  93 N12       30.32R FOG
TORRINGTON     CLOUDY    51  46  83 NE12      30.28R
PINE BLUFFS    MOCLDY    50  43  76 N14       30.30R

$$



USA.gov is the U.S. government's official web portal to all federal, state and local government web resources and services.